Flag for Germany Weather past 2 weeks in Ennepetal, North Rhine-Westphalia, Germany

Now
70 °F

Partly sunny.


Feels Like: 70 °F
Forecast: 43 / 55 °F
Wind: 7 mph from Northwest

Location: Dortmund / Wickede

Current Time: Sep 21, 2014 at 2:33:57 PM

Latest Report: Sep 21, 2014 at 1:50 PM


Visibility: N/A

Pressure: 30.01 "Hg

Humidity: 73%

Dew point: 61 °F

Location of EnnepetalLocation

Historic Weather in Ennepetal — Graph

°F

Ennepetal temperature yesterday

Maximum temperature yesterday: 70 °F (at 12:20 PM)
Minimum temperature yesterday: 55 °F (at 7:20 AM)
Average temperature yesterday: 62 °F

Past Weeks' High & Low Weather Summary

 TemperatureHumidityPressure
High77 °F (Sep 6, 1:50 PM)100% (Sep 21, 10:20 AM)30.24 "Hg (Sep 21, 10:20 AM)
Low43 °F (Sep 12, 5:50 AM)39% (Sep 17, 3:20 PM)29.83 "Hg (Sep 19, 5:20 AM)
Average62 °F76%30.03 "Hg
* Reported Sep 6 1:20 PM — Sep 21 1:20 PM, Ennepetal, Weather by CustomWeather, © 2014

Note: Actual official high and low records may vary slightly from our data, if they occured in-between our weather recording intervals... More about our weather records

Advertising

Ennepetal weather history for previous 24 hours

 ConditionsComfort  
Time TempWeatherWind HumidityBarometerVisibility
1:20 PM
Sep 21
63 °FPartly sunny.7 mph88%30.01 "HgN/A
12:50 PM59 °FScattered showers. Broken clouds.6 mph100%30.01 "Hg6 mi
12:20 PM59 °FScattered showers. Partly sunny.7 mph100%30.01 "Hg6 mi
11:50 AM61 °FScattered showers. Partly sunny.6 mph94%30.01 "Hg5 mi
11:20 AM59 °FLight rain. Partly sunny.6 mph100%30.01 "Hg4 mi
10:50 AM59 °FLight rain. Fog.8 mph94%30.01 "Hg2 mi
10:20 AM59 °FLight rain. Fog.7 mph100%29.95 "Hg2 mi
9:50 AM61 °FFog.7 mph94%29.95 "Hg1 mi
9:20 AM61 °FFog.3 mph94%29.95 "Hg1 mi
8:50 AM61 °FFog.2 mph94%29.95 "Hg1 mi
8:20 AM61 °FFog.2 mph94%29.95 "Hg1 mi
7:50 AM61 °FFog.2 mph94%29.95 "Hg1 mi
7:20 AM61 °FFog.2 mph94%29.95 "Hg1 mi
6:50 AM61 °FFog.3 mph94%29.95 "Hg1 mi
6:20 AM61 °FFog.2 mph94%29.95 "Hg1 mi
5:50 AM61 °FFog.2 mph94%29.95 "Hg1 mi
5:20 AM61 °FFog.3 mph94%29.95 "Hg1 mi
10:50 PM
Sep 20
61 °FClear.7 mph83%29.95 "Hg10 mi
10:20 PM63 °FClear.6 mph83%29.95 "Hg10 mi
9:50 PM63 °FClear.3 mph83%29.95 "Hg10 mi
9:20 PM61 °FScattered showers. Clear.2 mph88%29.95 "HgN/A
8:50 PM61 °FScattered showers. Passing clouds.9 mph88%29.95 "HgN/A
8:20 PM61 °FSprinkles. Scattered clouds.9 mph88%29.95 "HgN/A
7:50 PM61 °FThundershowers. Scattered clouds.9 mph94%29.95 "HgN/A
Weather by CustomWeather, © 2014

See weather overviewHow to use our weather pages